Appleton, WI

12:52 AM CDT on April 24, 2018 (GMT -0500)
Outagamie County Regional

Weather History for KATW - February, 2012

Change the Weather History Date:

Wednesday, February 15, 2012

  Actual Average Record
Temperature  
Mean Temperature 34 °F -  
Max Temperature 37 °F 29 °F 47 °F (1954)
Min Temperature 32 °F 13 °F -8 °F (1958)
Degree Days  
Heating Degree Days 30    
Moisture  
Dew Point 31 °F    
Average Humidity 91    
Maximum Humidity 100    
Minimum Humidity 81    
Precipitation  
Precipitation 0.00 in - - ()
Sea Level Pressure  
Sea Level Pressure 29.95 in    
Wind  
Wind Speed 7 mph (SSW)    
Max Wind Speed 14 mph    
Max Gust Speed -    
Visibility 6 miles    
Events Fog    
Averages and records for this station are not official NWS values.
T = Trace of Precipitation, MM = Missing Value Source: NWS Daily Summary

Daily Weather History Graph

Daily Weather History Graph

Search for Another Location

Airport or City:

Astronomy

Feb. 15, 2012 Rise Set
Actual Time 6:54 AM CST 5:22 PM CST
Civil Twilight 6:24 AM CST 5:52 PM CST
Nautical Twilight 5:50 AM CST 6:26 PM CST
Astronomical Twilight 5:17 AM CST 7:00 PM CST
Moon 1:54 AM CST (2/15) 11:10 AM CST (2/15)
Length of Visible Light 11h 27m
Length of Day
10h 28m
Last Quarter, 38% of the Moon is Illuminated
Feb 15
Last Quarter
Feb 21
New
Feb 29
First Quarter
Mar 8
Full
Mar 14
Last Quarter

Hourly Weather History & Observations

Time (CST) Temp. Windchill Dew Point Humidity Pressure Visibility Wind Dir Wind Speed Gust Speed Precip Events Conditions
12:15 AM 32.0 °F 25.6 °F 28.4 °F 87% 29.90 in 10.0 mi South 6.9 mph - N/A   Overcast
12:35 AM 32.0 °F 25.6 °F 28.4 °F 87% 29.90 in 10.0 mi SSW 6.9 mph - N/A   Overcast
1:15 AM 32.0 °F 24.2 °F 28.4 °F 87% 29.91 in 10.0 mi SSW 9.2 mph - N/A   Overcast
1:35 AM 32.0 °F 24.8 °F 28.4 °F 87% 29.91 in 10.0 mi SSW 8.1 mph - N/A   Overcast
1:55 AM 32.0 °F 24.8 °F 28.4 °F 87% 29.91 in 10.0 mi SSW 8.1 mph - N/A   Overcast
2:15 AM 32.0 °F 24.8 °F 28.4 °F 87% 29.91 in 10.0 mi South 8.1 mph - N/A   Overcast
2:35 AM 32.0 °F 23.6 °F 28.4 °F 87% 29.91 in 10.0 mi SSW 10.4 mph - N/A   Overcast
3:15 AM 32.0 °F 23.0 °F 30.2 °F 93% 29.91 in 10.0 mi SSW 11.5 mph - N/A   Overcast
3:35 AM 32.0 °F 23.0 °F 30.2 °F 93% 29.91 in 10.0 mi SSW 11.5 mph - N/A   Overcast
3:55 AM 32.0 °F 24.2 °F 30.2 °F 93% 29.92 in 10.0 mi SSW 9.2 mph - N/A   Overcast
5:20 AM 32.0 °F 22.5 °F 30.2 °F 93% 29.93 in 10.0 mi SSW 12.7 mph - N/A   Overcast
6:45 AM 32.0 °F 22.1 °F 30.2 °F 93% 29.95 in 5.0 mi SSW 13.8 mph - N/A   Overcast
7:45 AM 32.0 °F 23.6 °F 30.2 °F 93% 29.99 in 5.0 mi SW 10.4 mph - N/A   Overcast
8:45 AM 32.0 °F 22.5 °F 30.2 °F 93% 29.99 in 5.0 mi SW 12.7 mph - N/A   Overcast
9:45 AM 33.8 °F 26.4 °F 30.2 °F 87% 30.00 in 5.0 mi SW 9.2 mph - N/A   Overcast
10:45 AM 33.8 °F 26.4 °F 30.2 °F 87% 30.00 in 5.0 mi SW 9.2 mph - N/A   Overcast
11:45 AM 35.6 °F 29.9 °F 32.0 °F 87% 30.00 in 5.0 mi WSW 6.9 mph - N/A   Mostly Cloudy
12:45 PM 35.6 °F 30.7 °F 30.2 °F 81% 30.00 in 5.0 mi South 5.8 mph - N/A   Haze
1:55 PM 37.4 °F 32.1 °F 32.0 °F 81% 29.98 in 5.0 mi South 6.9 mph - N/A   Haze
2:45 PM 37.4 °F 32.1 °F 32.0 °F 81% 29.98 in 5.0 mi SSE 6.9 mph - N/A   Haze
3:45 PM 35.6 °F 29.2 °F 32.0 °F 87% 29.98 in 5.0 mi SSE 8.1 mph - N/A   Mostly Cloudy
4:45 PM 35.6 °F 32.8 °F 32.0 °F 87% 29.97 in 5.0 mi Variable 3.5 mph - N/A   Mostly Cloudy
5:45 PM 35.6 °F - 32.0 °F 87% 29.98 in 5.0 mi Calm Calm - N/A   Mostly Cloudy
6:45 PM 33.8 °F 30.8 °F 30.2 °F 87% 29.98 in 7.0 mi Variable 3.5 mph - N/A   Mostly Cloudy
7:45 PM 33.8 °F 29.6 °F 30.2 °F 87% 29.98 in 7.0 mi Variable 4.6 mph - N/A   Mostly Cloudy
8:45 PM 33.8 °F - 30.2 °F 87% 29.96 in 5.0 mi Calm Calm - N/A   Mostly Cloudy
9:45 PM 32.0 °F - 32.0 °F 100% 29.96 in 3.0 mi Calm Calm - N/A   Overcast
9:55 PM 32.0 °F - 32.0 °F 100% 29.95 in 3.0 mi Calm Calm - N/A   Overcast
10:15 PM 32.0 °F - 32.0 °F 100% 29.96 in 2.5 mi Calm Calm - N/A   Overcast
10:35 PM 32.0 °F - 32.0 °F 100% 29.95 in 1.0 mi Calm Calm - N/A   Overcast
10:45 PM 32.0 °F - 32.0 °F 100% 29.96 in 0.5 mi Calm Calm - N/A Fog Fog
10:55 PM 32.0 °F - 32.0 °F 100% 29.96 in 0.2 mi Calm Calm - N/A Fog Fog
11:15 PM 32.0 °F - 32.0 °F 100% 29.95 in 0.2 mi Calm Calm - N/A Fog Fog
11:35 PM 32.0 °F - 32.0 °F 100% 29.94 in 0.2 mi Calm Calm - N/A Fog Fog
11:55 PM 32.0 °F - 32.0 °F 100% 29.94 in 0.2 mi Calm Calm - N/A Fog Fog